Epoch,demod_status_bits,ebno,lock_status,signal_level,viterbi_ber
1664645571,C;S;V;F,11.8,0x00c000,-39.7,1.36e-5
1664645572,C;S;V;F,11.8,0x00c000,-39.7,4.99e-6
1664645573,C;S;V;F,11.4,0x00c000,-40.3,
1664645574,,10.9,0x00c000,-40.5,7.10e-6
1664645575,C;S;V;F,11.6,0x00c000,-40.1,2.28e-5
1664645576,C;S;V;F,11.1,0x00c000,-40.7,1.88e-5
1664645577,C;S;V;F,12.4,0x00c000,-38.9,2.25e-5
1664645578,C;S;V;F,,0x00c000,-39.7,1.69e-5
1664645579,C;S;V;F,12.7,0x00c000,-39.6,1.51e-6
1664645580,C;S;V;F,12.4,0x00c000,,1.66e-6
1664645581,C;S;V;F,12.2,0x00c000,-40.1,4.53e-6
1664645582,C;S;V;F,12.0,0x00c000,-39.4,5.44e-6
1664645583,C;S;V;F,12.3,0x00c000,-39.6,2.57e-6
1664645584,C;S;V;F,12.6,0x00c000,-38.9,1.81e-6
1664645585,C;S;V;F,12.5,0x00c000,-39.2,4.54e-7
1664645586,C;S;V;F,12.2,0x00c000,-39.8,1.81e-6
1664645587,C;S;V;F,12.2,0x00c000,-39.5,1.96e-6
1664645588,C;S;V;F,12.5,0x00c000,-39.6,1.96e-6
1664645589,C;S;V;F,12.3,0x00c000,-39.6,
1664645590,,12.4,0x00c000,-39.6,1.21e-6
1664645591,C;S;V;F,12.9,0x00c000,-39.2,1.36e-6
1664645592,C;S;V;F,12.3,0x00c000,-39.6,1.21e-6
1664645593,C;S;V;F,,0x00c000,-39.1,6.06e-7
1664645594,C;S;V;F,13.0,0x00c000,-38.8,1.21e-6
1664645595,C;S;V;F,13.4,0x00c000,-39.4,0.00e-0
1664645596,C;S;V;F,12.4,0x00c000,,1.51e-7
1664645597,C;S;V;F,13.1,0x00c000,-39.1,4.54e-7
1664645598,C;S;V;F,12.8,0x00c000,-39.0,1.51e-7
1664645599,C;S;V;F,12.9,0x00c000,-38.9,3.03e-7
1664645600,C;S;V;F,13.0,0x00c000,-38.8,1.51e-7
1664645601,C;S;V;F,12.8,0x00c000,-39.2,1.51e-7
1664645602,C;S;V;F,13.0,0x00c000,-38.9,0.00e-0
1664645603,C;S;V;F,13.1,0x00c000,-38.7,0.00e-0
1664645604,C;S;V;F,13.2,0x00c000,-39.0,0.00e-0
1664645605,C;S;V;F,12.6,0x00c000,-39.5,6.06e-7
1664645606,C;S;V;F,12.9,0x00c000,-38.8,
1664645607,,13.0,0x00c000,-39.5,6.06e-7
1664645608,C;S;V;F,12.6,0x00c000,-39.4,1.51e-7
1664645609,C;S;V;F,13.0,0x00c000,-39.1,7.57e-7
1664645610,C;S;V;F,,0x00c000,,7.57e-7
1664645611,C;S;V;F,13.5,0x00c000,-38.7,1.51e-7
1664645612,C;S;V;F,12.7,0x00c000,-39.2,3.03e-7
1664645613,C;S;V;F,12.7,0x00c000,-39.5,1.05e-6
1664645614,C;S;V;F,12.7,0x00c000,-39.4,7.57e-7
1664645615,C;S;V;F,12.5,0x00c000,-39.2,1.05e-6
1664645616,C;S;V;F,12.5,0x00c000,-39.5,1.21e-6
1664645617,C;S;V;F,12.7,0x00c000,-39.5,9.09e-7
1664645618,C;S;V;F,12.8,0x00c000,-39.0,6.06e-7
1664645619,C;S;V;F,13.2,0x00c000,-38.9,
1664645620,,13.0,0x00c000,-39.2,3.03e-7
1664645621,C;S;V;F,12.4,0x00c000,-39.5,1.51e-7
1664645622,C;S;V;F,,,,7.57e-7
1664645624,C;S;V;F,12.5,0x00c000,-39.5,1.81e-6
1664645625,C;S;V;F,12.6,0x00c000,-38.9,1.21e-6
1664645626,,13.6,0x00c000,-38.5,
1664645627,C;S;V;F,13.4,0x00c000,-38.4,1.51e-7
1664645628,C;S;V;F,13.0,0x00c000,-39.2,0.00e-0
1664645629,C;S;V;F,,0x00c000,-39.6,0.00e-0
1664645630,C;S;V;F,12.7,0x00c000,,1.51e-7
1664645631,C;S;V;F,12.9,0x00c000,-39.2,3.03e-7
1664645632,C;S;V;F,12.9,0x00c000,-39.2,1.51e-7
1664645633,C;S;V;F,12.9,0x00c000,-38.9,0.00e-0
1664645634,C;S;V;F,13.7,0x00c000,-38.5,0.00e-0
1664645635,C;S;V;F,13.5,0x00c000,-38.4,0.00e-0
1664645636,C;S;V;F,13.7,0x00c000,-38.7,0.00e-0
1664645637,C;S;V;F,13.6,0x00c000,-38.5,0.00e-0
1664645638,C;S;V;F,13.7,0x00c000,-38.6,0.00e-0
1664645639,C;S;V;F,13.7,0x00c000,-38.7,0.00e-0
1664645640,C;S;V;F,13.3,0x00c000,-38.9,
1664645641,,13.7,0x00c000,-38.4,0.00e-0
1664645642,C;S;V;F,13.9,0x00c000,-38.3,0.00e-0
1664645643,C;S;V;F,13.6,0x00c000,-38.6,0.00e-0
1664645644,C;S;V;F,,0x00c000,-38.8,0.00e-0
1664645645,C;S;V;F,13.4,0x00c000,-38.7,0.00e-0
1664645646,C;S;V;F,13.6,0x00c000,,0.00e-0
1664645647,C;S;V;F,13.8,0x00c000,-38.4,0.00e-0
1664645648,C;S;V;F,14.1,0x00c000,-38.3,0.00e-0
1664645649,C;S;V;F,13.7,0x00c000,-38.4,0.00e-0
1664645650,C;S;V;F,13.9,0x00c000,-38.0,0.00e-0
1664645651,C;S;V;F,14.3,0x00c000,-38.2,0.00e-0
1664645652,C;S;V;F,14.1,0x00c000,-38.3,0.00e-0
1664645653,C;S;V;F,14.0,0x00c000,-38.2,
1664645654,,14.2,0x00c000,-37.9,0.00e-0
1664645655,C;S;V;F,14.4,0x00c000,-37.9,0.00e-0
1664645656,C;S;V;F,14.6,0x00c000,-38.0,0.00e-0
1664645657,C;S;V;F,,0x00c000,-37.9,0.00e-0
1664645658,C;S;V;F,14.3,0x00c000,-37.9,0.00e-0
1664645659,C;S;V;F,14.4,0x00c000,,0.00e-0
1664645660,C;S;V;F,14.7,0x00c000,-37.9,0.00e-0
1664645661,C;S;V;F,14.7,0x00c000,-37.9,0.00e-0
1664645662,C;S;V;F,14.7,0x00c000,-37.7,0.00e-0
1664645663,C;S;V;F,14.9,0x00c000,-37.6,0.00e-0
1664645664,C;S;V;F,15.1,0x00c000,-37.3,0.00e-0
1664645665,C;S;V;F,14.8,0x00c000,-37.5,0.00e-0
1664645666,C;S;V;F,14.7,0x00c000,-37.6,0.00e-0
1664645667,C;S;V;F,14.6,0x00c000,-37.6,0.00e-0
1664645668,C;S;V;F,14.9,0x00c000,-37.5,0.00e-0
1664645669,C;S;V;F,15.1,0x00c000,-37.2,0.00e-0
1664645670,,15.2,0x00c000,-37.2,
1664645671,C;S;V;F,15.0,0x00c000,-37.2,0.00e-0
1664645672,C;S;V;F,,0x00c000,-37.1,0.00e-0
1664645673,C;S;V;F,15.1,0x00c000,-37.1,0.00e-0
1664645674,C;S;V;F,15.5,0x00c000,-37.2,0.00e-0
1664645675,C;S;V;F,15.1,0x00c000,,0.00e-0
1664645676,C;S;V;F,15.0,0x00c000,-37.2,0.00e-0
1664645677,C;S;V;F,15.2,0x00c000,-37.1,0.00e-0
1664645678,C;S;V;F,15.2,0x00c000,-37.3,0.00e-0
1664645679,C;S;V;F,15.1,0x00c000,-37.5,0.00e-0
1664645680,C;S;V;F,14.6,0x00c000,-37.6,0.00e-0
1664645681,C;S;V;F,14.9,0x00c000,-37.6,0.00e-0
1664645682,C;S;V;F,14.8,0x00c000,-37.7,0.00e-0
1664645683,C;S;V;F,15.0,0x00c000,-37.7,0.00e-0
1664645684,,14.7,0x00c000,-37.8,
1664645685,C;S;V;F,,,,0.00e-0
1664645687,C;S;V;F,14.9,0x00c000,-37.8,0.00e-0
1664645688,C;S;V;F,14.9,0x00c000,-37.4,0.00e-0
1664645689,C;S;V;F,14.9,0x00c000,-37.6,0.00e-0
1664645690,C;S;V;F,15.1,0x00c000,-37.2,
1664645691,C;S;V;F,15.3,0x00c000,-37.2,0.00e-0
1664645692,,15.1,0x00c000,-37.3,0.00e-0
1664645693,C;S;V;F,15.0,0x00c000,-37.5,0.00e-0
1664645694,C;S;V;F,15.0,0x00c000,-37.4,0.00e-0
1664645695,C;S;V;F,15.0,0x00c000,-37.6,0.00e-0
1664645696,C;S;V;F,,0x00c000,-37.9,0.00e-0
1664645697,C;S;V;F,14.6,0x00c000,,0.00e-0
1664645698,C;S;V;F,14.6,0x00c000,-38.0,0.00e-0
1664645699,C;S;V;F,14.6,0x00c000,-38.0,0.00e-0
1664645700,C;S;V;F,14.5,0x00c000,-38.1,0.00e-0
1664645701,C;S;V;F,14.7,0x00c000,-37.9,0.00e-0
1664645702,C;S;V;F,14.7,0x00c000,-37.6,0.00e-0
1664645703,C;S;V;F,14.9,0x00c000,-37.5,0.00e-0
1664645704,C;S;V;F,15.0,0x00c000,-37.4,0.00e-0
1664645705,C;S;V;F,15.0,0x00c000,-37.5,
1664645706,,14.9,0x00c000,-37.8,0.00e-0
1664645707,C;S;V;F,14.7,0x00c000,-37.9,0.00e-0
1664645708,C;S;V;F,14.6,0x00c000,-37.9,0.00e-0
1664645709,C;S;V;F,14.3,0x00c000,-38.0,0.00e-0
1664645710,C;S;V;F,,0x00c000,-38.0,0.00e-0
1664645711,C;S;V;F,14.5,0x00c000,,0.00e-0
1664645712,C;S;V;F,14.4,0x00c000,-38.0,0.00e-0
1664645713,C;S;V;F,14.5,0x00c000,-38.0,0.00e-0
1664645714,C;S;V;F,14.5,0x00c000,-37.7,0.00e-0
1664645715,C;S;V;F,14.8,0x00c000,-37.6,0.00e-0
1664645716,C;S;V;F,14.8,0x00c000,-37.5,0.00e-0
1664645717,C;S;V;F,14.7,0x00c000,-37.7,0.00e-0
1664645718,C;S;V;F,13.9,0x00c000,-38.5,0.00e-0
1664645719,C;S;V;F,14.1,0x00c000,-38.4,0.00e-0
1664645720,C;S;V;F,14.3,0x00c000,-38.5,0.00e-0
1664645721,C;S;V;F,14.2,0x00c000,-38.4,
1664645722,,14.3,0x00c000,-37.9,0.00e-0
1664645723,C;S;V;F,15.1,0x00c000,-37.6,0.00e-0
1664645724,C;S;V;F,14.9,0x00c000,-37.8,0.00e-0
1664645725,C;S;V;F,,0x00c000,-37.7,0.00e-0
1664645726,C;S;V;F,14.9,0x00c000,,0.00e-0
1664645727,C;S;V;F,14.5,0x00c000,-37.9,0.00e-0
1664645728,C;S;V;F,14.5,0x00c000,-38.0,
1664645729,C;S;V;F,14.4,0x00c000,-38.3,0.00e-0
1664645730,,14.5,0x00c000,-38.1,0.00e-0
1664645731,C;S;V;F,14.6,0x00c000,-37.9,0.00e-0
1664645732,C;S;V;F,14.9,0x00c000,-37.5,0.00e-0
1664645733,C;S;V;F,,0x00c000,-36.8,0.00e-0
1664645734,C;S;V;F,15.2,0x00c000,-37.1,0.00e-0
1664645735,C;S;V;F,15.5,0x00c000,,0.00e-0
1664645736,C;S;V;F,15.4,0x00c000,-37.2,0.00e-0
1664645737,C;S;V;F,15.1,0x00c000,-37.6,0.00e-0
1664645738,C;S;V;F,15.3,0x00c000,-37.3,0.00e-0
1664645739,C;S;V;F,15.3,0x00c000,-37.2,0.00e-0
1664645740,C;S;V;F,15.5,0x00c000,-37.1,0.00e-0
1664645741,C;S;V;F,15.8,0x00c000,-36.7,0.00e-0
1664645742,C;S;V;F,15.5,0x00c000,-36.4,
1664645743,C;S;V;F,15.8,0x00c000,-36.7,0.00e-0
1664645744,,15.4,0x00c000,-37.1,0.00e-0
1664645745,C;S;V;F,15.6,0x00c000,-37.0,0.00e-0
1664645746,C;S;V;F,15.6,0x00c000,-36.5,0.00e-0
1664645747,C;S;V;F,,0x00c000,,0.00e-0
1664645748,,,0x00c000,-35.9,
1664645749,C;S;V;F,16.4,0x00c000,,0.00e-0
1664645750,C;S;V;F,16.1,0x00c000,-35.9,0.00e-0
1664645751,C;S;V;F,16.3,0x00c000,-36.3,0.00e-0
1664645752,C;S;V;F,15.9,0x00c000,-36.6,0.00e-0
1664645753,C;S;V;F,15.9,0x00c000,-36.4,0.00e-0
1664645754,C;S;V;F,16.0,0x00c000,-35.8,0.00e-0
1664645755,C;S;V;F,16.6,0x00c000,-35.6,0.00e-0
1664645756,C;S;V;F,16.7,0x00c000,-35.5,0.00e-0
1664645757,,16.4,0x00c000,-36.0,
1664645758,C;S;V;F,16.0,0x00c000,-36.2,0.00e-0
1664645759,C;S;V;F,,0x00c000,-36.0,0.00e-0
1664645760,C;S;V;F,16.1,0x00c000,-35.5,0.00e-0
1664645761,C;S;V;F,16.5,0x00c000,,0.00e-0
1664645762,C;S;V;F,16.5,0x00c000,-35.6,0.00e-0
1664645763,C;S;V;F,16.4,0x00c000,-35.8,0.00e-0
1664645764,C;S;V;F,15.7,0x00c000,-36.3,0.00e-0
1664645765,C;S;V;F,15.5,0x00c000,-36.8,0.00e-0
1664645766,C;S;V;F,15.9,0x00c000,-36.2,0.00e-0
1664645767,C;S;V;F,16.4,0x00c000,-35.6,0.00e-0
1664645768,C;S;V;F,16.2,0x00c000,-35.8,0.00e-0
1664645769,C;S;V;F,15.5,0x00c000,-36.7,
1664645770,,15.2,0x00c000,-37.0,0.00e-0
1664645771,C;S;V;F,15.6,0x00c000,-36.4,0.00e-0
1664645772,C;S;V;F,16.0,0x00c000,-35.8,0.00e-0
1664645773,C;S;V;F,,0x00c000,-35.5,0.00e-0
1664645774,C;S;V;F,16.1,0x00c000,,0.00e-0
1664645775,C;S;V;F,15.9,0x00c000,-36.3,0.00e-0
1664645776,C;S;V;F,15.1,0x00c000,-37.1,0.00e-0
1664645777,C;S;V;F,15.1,0x00c000,-36.8,0.00e-0
1664645778,C;S;V;F,15.4,0x00c000,-36.3,0.00e-0
1664645779,C;S;V;F,15.6,0x00c000,-36.5,0.00e-0
1664645780,C;S;V;F,15.0,0x00c000,-37.2,0.00e-0
1664645781,C;S;V;F,14.4,0x00c000,-37.5,0.00e-0
1664645782,C;S;V;F,14.6,0x00c000,-36.8,0.00e-0
1664645783,C;S;V;F,15.5,0x00c000,-36.3,0.00e-0
1664645784,C;S;V;F,15.2,0x00c000,-36.5,0.00e-0
1664645785,C;S;V;F,14.5,0x00c000,-37.6,
1664645786,,14.6,0x00c000,-37.3,0.00e-0
1664645787,C;S;V;F,14.9,0x00c000,-37.0,0.00e-0
1664645788,C;S;V;F,15.3,0x00c000,-36.6,0.00e-0
1664645789,C;S;V;F,,0x00c000,-36.8,0.00e-0
1664645790,C;S;V;F,15.3,0x00c000,,0.00e-0
1664645791,C;S;V;F,15.0,0x00c000,-37.2,0.00e-0
1664645792,C;S;V;F,15.2,0x00c000,-36.8,0.00e-0
1664645793,C;S;V;F,15.8,0x00c000,-36.1,0.00e-0
1664645794,C;S;V;F,15.9,0x00c000,-36.2,0.00e-0
1664645795,C;S;V;F,15.6,0x00c000,-36.4,0.00e-0
1664645796,C;S;V;F,15.8,0x00c000,-36.2,0.00e-0
1664645797,C;S;V;F,16.2,0x00c000,-35.6,0.00e-0
1664645798,C;S;V;F,16.3,0x00c000,-35.7,0.00e-0
1664645799,C;S;V;F,16.0,0x00c000,-36.0,0.00e-0
1664645800,C;S;V;F,16.7,0x00c000,-35.6,
1664645801,,17.0,0x00c000,-34.6,0.00e-0
1664645802,C;S;V;F,17.0,0x00c000,-35.1,0.00e-0
1664645803,C;S;V;F,16.5,0x00c000,-35.6,0.00e-0
1664645804,C;S;V;F,16.9,0x00c000,-34.9,0.00e-0
1664645805,C;S;V;F,,0x00c000,-34.5,0.00e-0
1664645806,C;S;V;F,17.5,0x00c000,,0.00e-0
1664645807,C;S;V;F,17.3,0x00c000,-35.1,0.00e-0
1664645808,C;S;V;F,16.8,0x00c000,-35.3,0.00e-0
1664645809,C;S;V;F,17.3,0x00c000,-34.0,0.00e-0
1664645810,C;S;V;F,17.5,0x00c000,-33.9,0.00e-0
1664645812,,17.5,0x00c000,-33.9,
1664645813,C;S;V;F,18.2,0x00c000,-33.7,0.00e-0
1664645814,C;S;V;F,17.7,0x00c000,-34.5,0.00e-0
1664645815,C;S;V;F,17.5,0x00c000,-34.4,0.00e-0
1664645816,C;S;V;F,,0x00c000,-33.9,0.00e-0
1664645817,C;S;V;F,17.8,0x00c000,,0.00e-0
1664645818,C;S;V;F,17.7,0x00c000,-34.0,0.00e-0
1664645819,C;S;V;F,17.7,0x00c000,-34.7,0.00e-0
1664645820,C;S;V;F,17.8,0x00c000,-34.2,0.00e-0
1664645824,C;S;V;F,17.7,0x00c000,-34.2,0.00e-0
1664645825,C;S;V;F,17.6,0x00c000,-34.1,0.00e-0
1664645826,C;S;V;F,17.5,0x00c000,-34.5,
1664645827,,17.5,0x00c000,-34.8,0.00e-0
1664645828,C;S;V;F,17.7,0x00c000,-34.2,0.00e-0
1664645829,C;S;V;F,,0x00c000,-34.3,0.00e-0
1664645830,C;S;V;F,17.7,0x00c000,,0.00e-0
1664645831,C;S;V;F,17.5,0x00c000,-34.7,0.00e-0
1664645832,C;S;V;F,17.1,0x00c000,-34.8,0.00e-0
1664645833,C;S;V;F,17.5,0x00c000,-34.8,0.00e-0
1664645834,C;S;V;F,16.8,0x00c000,-35.5,0.00e-0
1664645835,C;S;V;F,16.7,0x00c000,-35.6,0.00e-0
1664645836,C;S;V;F,16.9,0x00c000,-35.4,0.00e-0
1664645837,C;S;V;F,16.7,0x00c000,-35.6,0.00e-0
1664645838,C;S;V;F,16.7,0x00c000,-35.6,
1664645839,,16.7,0x00c000,-35.7,0.00e-0
1664645840,C;S;V;F,16.6,0x00c000,-35.9,0.00e-0
1664645841,C;S;V;F,16.2,0x00c000,-36.3,0.00e-0
1664645842,C;S;V;F,,0x00c000,-36.2,0.00e-0
1664645843,C;S;V;F,16.3,0x00c000,-35.9,0.00e-0
1664645844,C;S;V;F,16.4,0x00c000,,0.00e-0
1664645845,C;S;V;F,16.5,0x00c000,-35.8,0.00e-0
1664645846,C;S;V;F,16.3,0x00c000,-36.3,0.00e-0
1664645847,C;S;V;F,16.4,0x00c000,-36.2,0.00e-0
1664645848,C;S;V;F,16.3,0x00c000,-35.9,0.00e-0
1664645849,C;S;V;F,16.1,0x00c000,-36.1,0.00e-0
1664645850,C;S;V;F,16.1,0x00c000,-36.5,0.00e-0
1664645851,C;S;V;F,16.1,0x00c000,-36.6,0.00e-0
1664645852,C;S;V;F,15.8,0x00c000,-36.6,
1664645853,,15.7,0x00c000,-36.8,0.00e-0
1664645854,C;S;V;F,15.8,0x00c000,-36.5,0.00e-0
1664645855,C;S;V;F,16.1,0x00c000,-36.5,0.00e-0
1664645856,C;S;V;F,15.8,0x00c000,-36.5,0.00e-0
1664645857,C;S;V;F,,0x00c000,-36.7,0.00e-0
1664645858,C;S;V;F,15.7,0x00c000,-36.7,0.00e-0
1664645859,C;S;V;F,16.1,0x00c000,,0.00e-0
1664645860,C;S;V;F,16.1,0x00c000,-36.4,0.00e-0
1664645861,C;S;V;F,16.1,0x00c000,-36.4,0.00e-0
1664645862,C;S;V;F,16.0,0x00c000,-36.3,0.00e-0
1664645863,C;S;V;F,16.2,0x00c000,-36.1,0.00e-0
1664645864,C;S;V;F,16.3,0x00c000,-36.1,0.00e-0
1664645865,C;S;V;F,16.1,0x00c000,-36.3,0.00e-0
1664645866,C;S;V;F,16.0,0x00c000,-36.4,0.00e-0
1664645867,C;S;V;F,16.1,0x00c000,-36.5,
1664645868,,15.9,0x00c000,-36.3,0.00e-0
1664645869,C;S;V;F,16.1,0x00c000,-36.3,0.00e-0
1664645870,C;S;V;F,16.1,0x00c000,-36.4,0.00e-0
1664645871,C;S;V;F,,0x00c000,-36.4,0.00e-0
1664645872,C;S;V;F,16.2,0x00c000,-36.5,0.00e-0
1664645873,C;S;V;F,15.9,0x00c000,,0.00e-0
1664645875,C;S;V;F,16.3,0x00c000,-36.3,0.00e-0
1664645876,C;S;V;F,16.2,0x00c000,-36.4,
1664645877,,16.2,0x00c000,-36.3,0.00e-0
1664645878,C;S;V;F,16.1,0x00c000,-36.3,0.00e-0
1664645879,C;S;V;F,16.1,0x00c000,-36.1,0.00e-0
1664645880,C;S;V;F,,0x00c000,-36.3,0.00e-0
1664645881,C;S;V;F,16.4,0x00c000,-36.1,0.00e-0
1664645882,C;S;V;F,16.4,0x00c000,,0.00e-0
1664645883,C;S;V;F,16.9,0x00c000,-35.8,0.00e-0
1664645884,C;S;V;F,16.7,0x00c000,-35.8,0.00e-0
1664645885,C;S;V;F,17.0,0x00c000,-35.6,0.00e-0
1664645886,C;S;V;F,16.7,0x00c000,-35.6,0.00e-0
1664645887,C;S;V;F,16.9,0x00c000,-35.6,0.00e-0
1664645888,C;S;V;F,17.0,0x00c000,-35.4,0.00e-0
1664645889,C;S;V;F,17.1,0x00c000,-35.3,0.00e-0
1664645890,C;S;V;F,17.0,0x00c000,-35.1,
1664645891,,17.0,0x00c000,-34.9,0.00e-0
1664645892,C;S;V;F,17.4,0x00c000,-34.9,0.00e-0
1664645893,C;S;V;F,17.3,0x00c000,-34.8,0.00e-0
1664645894,C;S;V;F,17.4,0x00c000,-34.9,0.00e-0
1664645895,C;S;V;F,,0x00c000,-34.8,0.00e-0
1664645896,C;S;V;F,17.4,0x00c000,-34.7,0.00e-0
1664645897,C;S;V;F,17.6,0x00c000,,0.00e-0
1664645898,C;S;V;F,17.7,0x00c000,-34.4,0.00e-0
1664645899,C;S;V;F,17.7,0x00c000,-34.2,0.00e-0
1664645900,C;S;V;F,18.0,0x00c000,-34.0,0.00e-0
1664645901,C;S;V;F,18.2,0x00c000,-33.7,0.00e-0
1664645902,C;S;V;F,18.2,0x00c000,-33.7,0.00e-0
1664645903,C;S;V;F,18.2,0x00c000,-33.6,0.00e-0
1664645904,C;S;V;F,18.4,0x00c000,-33.6,
1664645905,,18.2,0x00c000,-33.4,0.00e-0
1664645906,C;S;V;F,18.3,0x00c000,-33.4,0.00e-0
1664645907,C;S;V;F,18.3,0x00c000,-33.4,0.00e-0
1664645908,C;S;V;F,,0x00c000,-33.4,0.00e-0
1664645909,C;S;V;F,18.2,0x00c000,-33.5,0.00e-0
1664645910,C;S;V;F,18.2,0x00c000,,0.00e-0
1664645911,C;S;V;F,18.4,0x00c000,-33.5,0.00e-0
1664645912,C;S;V;F,18.5,0x00c000,-33.2,0.00e-0
1664645913,C;S;V;F,18.5,0x00c000,-33.2,0.00e-0
1664645914,C;S;V;F,18.5,0x00c000,-33.1,0.00e-0
1664645915,C;S;V;F,18.5,0x00c000,-33.0,0.00e-0
1664645916,C;S;V;F,18.5,0x00c000,-33.0,0.00e-0
1664645917,C;S;V;F,18.4,0x00c000,-33.1,0.00e-0
1664645918,C;S;V;F,18.4,0x00c000,-33.4,
1664645919,,18.4,0x00c000,-33.6,0.00e-0
1664645920,C;S;V;F,18.3,0x00c000,-33.5,0.00e-0
1664645921,C;S;V;F,,0x00c000,-33.6,0.00e-0
1664645922,C;S;V;F,18.3,0x00c000,-33.6,0.00e-0
1664645923,C;S;V;F,18.2,0x00c000,,0.00e-0
1664645924,C;S;V;F,18.2,0x00c000,-33.7,0.00e-0
1664645925,C;S;V;F,18.3,0x00c000,-33.5,0.00e-0
1664645926,C;S;V;F,18.3,0x00c000,-33.8,0.00e-0
1664645927,C;S;V;F,17.9,0x00c000,-34.0,0.00e-0
1664645928,C;S;V;F,18.1,0x00c000,-34.3,0.00e-0
1664645929,C;S;V;F,17.8,0x00c000,-34.0,0.00e-0
1664645930,C;S;V;F,17.9,0x00c000,-34.2,
1664645931,,17.5,0x00c000,-34.4,0.00e-0
1664645932,C;S;V;F,17.7,0x00c000,-34.5,0.00e-0
1664645933,C;S;V;F,17.5,0x00c000,-34.7,0.00e-0
1664645934,C;S;V;F,17.5,0x00c000,-34.9,0.00e-0
1664645935,C;S;V;F,,0x00c000,,0.00e-0
1664645937,C;S;V;F,17.5,0x00c000,-35.1,0.00e-0
1664645938,C;S;V;F,17.4,0x00c000,-34.9,0.00e-0
1664645939,C;S;V;F,17.3,0x00c000,-35.2,0.00e-0
1664645940,C;S;V;F,17.1,0x00c000,-35.2,0.00e-0
1664645941,,16.9,0x00c000,-35.2,
1664645942,C;S;V;F,17.1,0x00c000,-35.5,0.00e-0
1664645943,C;S;V;F,16.8,0x00c000,-35.6,0.00e-0
1664645944,C;S;V;F,,0x00c000,-35.7,0.00e-0
1664645945,C;S;V;F,16.6,0x00c000,-35.7,0.00e-0
1664645946,C;S;V;F,16.6,0x00c000,,0.00e-0
1664645947,C;S;V;F,16.7,0x00c000,-35.9,0.00e-0
1664645948,C;S;V;F,16.5,0x00c000,-35.9,0.00e-0
1664645949,C;S;V;F,16.7,0x00c000,-35.5,0.00e-0
1664645950,C;S;V;F,16.7,0x00c000,-35.6,0.00e-0
1664645951,C;S;V;F,16.8,0x00c000,-35.6,0.00e-0
1664645952,C;S;V;F,16.7,0x00c000,-35.9,0.00e-0
1664645953,C;S;V;F,16.6,0x00c000,-35.9,0.00e-0
1664645954,C;S;V;F,16.4,0x00c000,-36.0,
1664645955,,16.3,0x00c000,-36.2,0.00e-0
1664645956,C;S;V;F,16.2,0x00c000,-36.3,0.00e-0
1664645957,C;S;V;F,16.2,0x00c000,-36.3,0.00e-0
1664645958,C;S;V;F,,0x00c000,-36.3,0.00e-0
1664645959,C;S;V;F,16.3,0x00c000,,0.00e-0
1664645960,C;S;V;F,16.3,0x00c000,-36.3,0.00e-0
1664645961,C;S;V;F,16.2,0x00c000,-36.1,0.00e-0
1664645962,C;S;V;F,16.3,0x00c000,-36.0,0.00e-0
1664645963,C;S;V;F,16.4,0x00c000,-36.0,0.00e-0
1664645964,C;S;V;F,16.7,0x00c000,-35.8,0.00e-0
1664645965,C;S;V;F,16.8,0x00c000,-35.6,0.00e-0
1664645966,C;S;V;F,16.6,0x00c000,-36.0,0.00e-0
1664645967,C;S;V;F,16.3,0x00c000,-36.3,
1664645968,,16.0,0x00c000,-36.5,0.00e-0
1664645969,C;S;V;F,15.9,0x00c000,-36.5,0.00e-0
1664645970,C;S;V;F,15.8,0x00c000,-36.4,0.00e-0
1664645971,C;S;V;F,,0x00c000,-36.3,0.00e-0
1664645972,C;S;V;F,16.3,0x00c000,-35.7,0.00e-0
1664645973,C;S;V;F,16.4,0x00c000,,0.00e-0
1664645974,C;S;V;F,16.6,0x00c000,-35.7,0.00e-0
1664645975,C;S;V;F,16.6,0x00c000,-35.6,0.00e-0
1664645976,C;S;V;F,16.6,0x00c000,-35.8,0.00e-0
1664645977,C;S;V;F,16.6,0x00c000,-36.0,0.00e-0
1664645978,C;S;V;F,16.5,0x00c000,-36.0,0.00e-0
1664645979,C;S;V;F,16.5,0x00c000,-36.0,0.00e-0
1664645980,C;S;V;F,16.3,0x00c000,-36.0,0.00e-0
1664645981,C;S;V;F,16.4,0x00c000,-35.9,0.00e-0
1664645982,C;S;V;F,16.4,0x00c000,-35.8,0.00e-0
1664645983,C;S;V;F,16.6,0x00c000,-35.6,
1664645984,,16.7,0x00c000,-35.6,0.00e-0
1664645985,C;S;V;F,16.5,0x00c000,-35.7,0.00e-0
1664645986,C;S;V;F,16.8,0x00c000,-35.6,0.00e-0
1664645987,C;S;V;F,,0x00c000,-35.6,0.00e-0
1664645988,C;S;V;F,16.9,0x00c000,,0.00e-0
1664645989,C;S;V;F,16.8,0x00c000,-35.7,0.00e-0
1664645990,C;S;V;F,16.8,0x00c000,-35.7,0.00e-0
1664645991,C;S;V;F,17.0,0x00c000,-35.5,0.00e-0
1664645992,C;S;V;F,17.0,0x00c000,-35.6,0.00e-0
1664645993,C;S;V;F,16.9,0x00c000,-35.4,0.00e-0
1664645994,C;S;V;F,16.9,0x00c000,-35.6,0.00e-0
1664645995,C;S;V;F,16.7,0x00c000,-35.6,0.00e-0
1664645996,,16.7,0x00c000,-35.5,
1664645997,C;S;V;F,16.7,0x00c000,-35.6,0.00e-0
1664645998,C;S;V;F,,0x00c000,,0.00e-0
1664645999,,,0x00c000,-35.7,
1664646000,C;S;V;F,16.8,0x00c000,,0.00e-0
1664646001,C;S;V;F,16.9,0x00c000,-35.5,0.00e-0
1664646002,C;S;V;F,17.0,0x00c000,-35.5,0.00e-0
1664646003,C;S;V;F,17.0,0x00c000,-35.4,0.00e-0
1664646004,C;S;V;F,16.9,0x00c000,-35.6,0.00e-0
1664646005,C;S;V;F,16.8,0x00c000,-35.6,0.00e-0
1664646006,C;S;V;F,16.8,0x00c000,-35.6,0.00e-0
1664646007,C;S;V;F,16.7,0x00c000,-35.6,
1664646008,,16.7,0x00c000,-35.6,0.00e-0
1664646009,C;S;V;F,16.6,0x00c000,-35.6,0.00e-0
1664646010,C;S;V;F,16.7,0x00c000,-35.6,0.00e-0
1664646011,C;S;V;F,,0x00c000,-35.5,0.00e-0
1664646012,C;S;V;F,16.7,0x00c000,,0.00e-0
1664646013,C;S;V;F,16.8,0x00c000,-35.5,0.00e-0
1664646014,C;S;V;F,16.6,0x00c000,-35.6,0.00e-0
1664646015,C;S;V;F,16.7,0x00c000,-35.8,0.00e-0
1664646016,C;S;V;F,16.7,0x00c000,-35.6,0.00e-0
1664646017,C;S;V;F,16.9,0x00c000,-35.7,0.00e-0
1664646018,C;S;V;F,16.7,0x00c000,-35.6,0.00e-0
1664646019,C;S;V;F,16.8,0x00c000,-35.6,0.00e-0
1664646020,C;S;V;F,16.9,0x00c000,-35.5,0.00e-0
1664646021,C;S;V;F,16.8,0x00c000,-35.5,
1664646022,,16.8,0x00c000,-35.4,0.00e-0
1664646023,C;S;V;F,17.0,0x00c000,-35.6,0.00e-0
1664646024,C;S;V;F,16.9,0x00c000,-35.6,0.00e-0
1664646025,C;S;V;F,,0x00c000,-35.4,0.00e-0
1664646026,C;S;V;F,16.9,0x00c000,,0.00e-0
1664646027,C;S;V;F,17.0,0x00c000,-35.3,0.00e-0
1664646028,C;S;V;F,17.0,0x00c000,-35.4,
1664646029,,17.2,0x00c000,-35.1,0.00e-0
1664646030,C;S;V;F,17.0,0x00c000,-35.2,0.00e-0
1664646031,C;S;V;F,,0x00c000,-35.2,0.00e-0
1664646032,C;S;V;F,17.0,0x00c000,-35.0,0.00e-0
1664646033,C;S;V;F,17.1,0x00c000,,0.00e-0
1664646034,C;S;V;F,17.3,0x00c000,-34.8,0.00e-0
1664646035,C;S;V;F,17.3,0x00c000,-34.8,0.00e-0
1664646036,C;S;V;F,17.4,0x00c000,-34.7,0.00e-0
1664646037,C;S;V;F,17.4,0x00c000,-34.8,0.00e-0
1664646038,C;S;V;F,17.2,0x00c000,-34.8,0.00e-0
1664646039,C;S;V;F,17.5,0x00c000,-34.7,0.00e-0
1664646040,C;S;V;F,17.4,0x00c000,-34.6,0.00e-0
1664646041,,17.3,0x00c000,-34.8,
1664646042,C;S;V;F,,0x00c000,-34.8,0.00e-0
1664646043,C;S;V;F,17.3,0x00c000,-34.9,0.00e-0
1664646044,C;S;V;F,17.5,0x00c000,,0.00e-0
1664646045,C;S;V;F,17.1,0x00c000,-35.0,0.00e-0
1664646046,C;S;V;F,17.3,0x00c000,-34.8,0.00e-0
1664646047,C;S;V;F,17.4,0x00c000,-34.7,0.00e-0
1664646048,C;S;V;F,17.6,0x00c000,-34.5,0.00e-0
1664646049,C;S;V;F,17.5,0x00c000,-34.4,0.00e-0
1664646050,C;S;V;F,17.5,0x00c000,-34.4,0.00e-0
1664646051,C;S;V;F,17.5,0x00c000,-34.4,0.00e-0
1664646052,C;S;V;F,17.5,0x00c000,-34.7,
1664646053,,17.5,0x00c000,-34.8,0.00e-0
1664646054,C;S;V;F,17.3,0x00c000,-34.9,0.00e-0
1664646055,C;S;V;F,,0x00c000,-34.5,0.00e-0
1664646056,C;S;V;F,17.3,0x00c000,-34.6,0.00e-0
1664646057,C;S;V;F,17.6,0x00c000,,0.00e-0
1664646058,C;S;V;F,17.6,0x00c000,-34.5,0.00e-0
1664646059,C;S;V;F,17.5,0x00c000,-34.7,0.00e-0
1664646060,C;S;V;F,17.7,0x00c000,-34.6,0.00e-0
1664646061,C;S;V;F,17.7,0x00c000,-34.3,0.00e-0
1664646063,,17.5,0x00c000,-34.3,
1664646064,C;S;V;F,17.6,0x00c000,-34.7,0.00e-0
1664646065,C;S;V;F,,,,0.00e-0
1664646066,C;S;V;F,17.6,0x00c000,-34.4,0.00e-0
1664646067,C;S;V;F,17.4,0x00c000,-34.7,0.00e-0
1664646068,C;S;V;F,17.4,0x00c000,-34.5,0.00e-0
1664646069,C;S;V;F,17.3,0x00c000,-34.7,0.00e-0
1664646070,,17.4,0x00c000,-34.7,
1664646071,C;S;V;F,17.2,0x00c000,-34.9,0.00e-0
1664646072,C;S;V;F,16.9,0x00c000,-34.9,0.00e-0
1664646073,C;S;V;F,,0x00c000,-35.1,0.00e-0
1664646074,C;S;V;F,17.0,0x00c000,,0.00e-0
1664646075,C;S;V;F,17.1,0x00c000,-35.2,0.00e-0
1664646076,C;S;V;F,16.6,0x00c000,-35.4,0.00e-0
1664646077,C;S;V;F,16.7,0x00c000,-35.5,0.00e-0
1664646078,,16.8,0x00c000,-35.6,
1664646079,C;S;V;F,16.8,0x00c000,-35.5,0.00e-0
1664646080,C;S;V;F,,0x00c000,-35.5,0.00e-0
1664646081,C;S;V;F,16.7,0x00c000,-35.4,0.00e-0
1664646082,C;S;V;F,16.7,0x00c000,-35.5,0.00e-0
1664646083,C;S;V;F,16.9,0x00c000,,0.00e-0
1664646084,C;S;V;F,16.7,0x00c000,-35.2,0.00e-0
1664646085,C;S;V;F,16.8,0x00c000,-35.4,0.00e-0
1664646086,C;S;V;F,16.6,0x00c000,-35.6,0.00e-0
1664646087,C;S;V;F,16.7,0x00c000,-35.5,0.00e-0
1664646088,C;S;V;F,16.5,0x00c000,-35.7,0.00e-0
1664646089,C;S;V;F,16.5,0x00c000,-35.6,
1664646090,,16.3,0x00c000,-35.7,0.00e-0
1664646091,C;S;V;F,16.6,0x00c000,-36.1,0.00e-0
1664646092,C;S;V;F,,0x00c000,-36.0,0.00e-0
1664646093,C;S;V;F,16.5,0x00c000,-35.6,0.00e-0
1664646094,C;S;V;F,16.5,0x00c000,,0.00e-0
1664646095,C;S;V;F,16.4,0x00c000,-35.7,0.00e-0
1664646096,C;S;V;F,16.4,0x00c000,-35.9,0.00e-0
1664646097,C;S;V;F,16.2,0x00c000,-36.2,0.00e-0
1664646098,C;S;V;F,16.2,0x00c000,-36.0,0.00e-0
1664646099,C;S;V;F,16.2,0x00c000,-36.1,0.00e-0
1664646100,,16.2,0x00c000,-36.2,
1664646101,C;S;V;F,16.2,0x00c000,-36.3,0.00e-0
1664646102,C;S;V;F,16.2,0x00c000,-36.0,0.00e-0
1664646103,C;S;V;F,,0x00c000,-36.1,0.00e-0
1664646104,C;S;V;F,16.1,0x00c000,-36.3,0.00e-0
1664646105,C;S;V;F,16.1,0x00c000,,0.00e-0
1664646106,C;S;V;F,16.2,0x00c000,-36.3,0.00e-0
1664646107,C;S;V;F,16.2,0x00c000,-36.4,0.00e-0
1664646108,C;S;V;F,16.1,0x00c000,-36.1,0.00e-0
1664646109,C;S;V;F,15.9,0x00c000,-36.4,
1664646110,,15.8,0x00c000,-36.4,0.00e-0
1664646111,C;S;V;F,15.7,0x00c000,-36.5,0.00e-0